timestamp,surface_pressure_avg,surface_temp_avg,battery_voltage,lat,long
2022-03-22 00:09:01+00:00,323.3846,1.2,11.61,47.84626,-54.09684
2022-03-22 00:19:01+00:00,338.7363,1.2,11.61,47.84626,-54.09684
2022-03-22 00:29:01+00:00,353.2379,1.2,11.61,47.84626,-54.09684
2022-03-22 00:39:01+00:00,363.4279,1.2,11.61,47.84626,-54.09684
2022-03-22 00:49:01+00:00,366.4562,1.2,11.61,47.84626,-54.09684
2022-03-22 00:59:01+00:00,371.358,1.2,11.61,47.84626,-54.09684
2022-03-22 01:09:01+00:00,382.24300000000005,1.25,11.61,47.84626,-54.09684
2022-03-22 01:19:01+00:00,385.8279,1.23,11.61,47.84626,-54.09684
2022-03-22 01:29:01+00:00,379.343,1.23,11.61,47.84626,-54.09684
2022-03-22 01:39:01+00:00,380.30300000000005,1.25,11.61,47.84626,-54.09684
2022-03-22 01:49:01+00:00,379.6929,1.26,11.61,47.84626,-54.09684
2022-03-22 01:59:01+00:00,385.8346,1.25,11.61,47.84626,-54.09684
2022-03-22 02:09:01+00:00,389.8312,1.26,11.61,47.84626,-54.09684
2022-03-22 02:19:01+00:00,389.4263,1.27,11.61,47.84626,-54.09684
2022-03-22 02:29:01+00:00,383.6863,1.24,11.61,47.84626,-54.09684
2022-03-22 02:39:01+00:00,380.8546,1.22,11.61,47.84626,-54.09684
2022-03-22 02:49:01+00:00,383.1196,1.23,11.61,47.84626,-54.09684
2022-03-22 02:59:01+00:00,381.2979,1.25,11.61,47.84626,-54.09684
2022-03-22 03:09:01+00:00,381.3546,1.25,11.61,47.84626,-54.09684
2022-03-22 03:19:00+00:00,377.7112,1.25,11.61,47.84626,-54.09684
2022-03-22 03:29:00+00:00,374.7863,1.25,11.61,47.84626,-54.09684
2022-03-22 03:39:00+00:00,370.3995,1.25,11.61,47.84626,-54.09684
2022-03-22 03:49:00+00:00,364.1595,1.25,11.61,47.84626,-54.09684
2022-03-22 03:59:00+00:00,358.403,1.25,11.61,47.84626,-54.09684
2022-03-22 04:09:00+00:00,352.5262,1.27,11.61,47.84626,-54.09684
2022-03-22 04:19:01+00:00,354.2313,1.27,11.61,47.84626,-54.09684
2022-03-22 04:29:01+00:00,345.7629,1.26,11.61,47.84626,-54.09684
2022-03-22 04:39:01+00:00,339.5662,1.24,11.61,47.84626,-54.09684
2022-03-22 04:49:01+00:00,333.0164,1.2,11.61,47.84626,-54.09684
2022-03-22 04:59:01+00:00,324.6229,1.2,11.61,47.84626,-54.09684
2022-03-22 05:09:01+00:00,313.068,1.2,11.61,47.84626,-54.09684
2022-03-22 05:19:00+00:00,301.903,1.2,11.61,47.84626,-54.09684
2022-03-22 05:29:00+00:00,294.6381,1.26,11.61,47.84626,-54.09684
2022-03-22 05:39:00+00:00,286.1164,1.29,11.61,47.84626,-54.09684
2022-03-22 05:49:00+00:00,273.3813,1.29,11.61,47.84626,-54.09684
2022-03-22 05:59:00+00:00,265.053,1.29,11.61,47.84626,-54.09684
2022-03-22 06:09:00+00:00,259.0364,1.29,11.61,47.84626,-54.09684
2022-03-22 06:19:00+00:00,250.3748,1.3,11.61,47.84626,-54.09684
2022-03-22 06:29:00+00:00,239.1298,1.3,11.61,47.84626,-54.09684
2022-03-22 06:39:00+00:00,232.4764,1.29,11.61,47.84626,-54.09684
2022-03-22 06:49:00+00:00,228.1148,1.29,11.61,47.84626,-54.09684
2022-03-22 06:59:00+00:00,221.5164,1.3,11.61,47.84626,-54.09684
2022-03-22 07:09:00+00:00,214.6581,1.3,11.61,47.84626,-54.09684
2022-03-22 07:19:00+00:00,209.8515,1.28,11.61,47.84626,-54.09684
2022-03-22 07:29:00+00:00,207.2115,1.28,11.61,47.84626,-54.09684
2022-03-22 07:39:00+00:00,200.5215,1.28,11.61,47.84626,-54.09684
2022-03-22 07:49:00+00:00,193.1431,1.26,11.61,47.84626,-54.09684
2022-03-22 07:59:00+00:00,194.6515,1.25,11.61,47.84626,-54.09684
2022-03-22 08:09:00+00:00,197.2097,1.25,11.61,47.84626,-54.09684
2022-03-22 08:19:01+00:00,198.0148,1.2,11.61,47.84626,-54.09684
2022-03-22 08:29:01+00:00,199.8448,1.2,11.61,47.84626,-54.09684
2022-03-22 08:39:01+00:00,203.0248,1.2,11.61,47.84626,-54.09684
2022-03-22 08:49:01+00:00,203.7964,1.2,11.61,47.84626,-54.09684
2022-03-22 08:59:01+00:00,209.2881,1.2,11.61,47.84626,-54.09684
2022-03-22 09:09:01+00:00,216.1082,1.2,11.61,47.84626,-54.09684
2022-03-22 09:19:01+00:00,218.3915,1.2,11.53,47.84626,-54.09684
2022-03-22 09:29:01+00:00,222.6864,1.2,11.53,47.84626,-54.09684
2022-03-22 09:39:01+00:00,223.4131,1.2,11.53,47.84626,-54.09684
2022-03-22 09:49:01+00:00,222.2765,1.2,11.53,47.84626,-54.09684
2022-03-22 09:59:01+00:00,232.2264,1.2,11.53,47.84626,-54.09684
2022-03-22 10:09:01+00:00,243.998,1.2,11.53,47.84626,-54.09684
2022-03-22 10:19:01+00:00,240.9314,1.2,11.53,47.84626,-54.09684
2022-03-22 10:29:01+00:00,242.9514,1.2,11.53,47.84626,-54.09684
2022-03-22 10:39:01+00:00,261.2148,1.2,11.53,47.84626,-54.09684
2022-03-22 10:49:01+00:00,267.8731,1.2,11.53,47.84626,-54.09684
2022-03-22 10:59:01+00:00,253.6097,1.2,11.53,47.84626,-54.09684
2022-03-22 11:09:01+00:00,252.603,1.2,11.53,47.84626,-54.09684
2022-03-22 11:19:00+00:00,272.4547,1.2,11.53,47.84626,-54.09684
2022-03-22 11:29:00+00:00,276.1581,1.2,11.53,47.84626,-54.09684
2022-03-22 11:39:00+00:00,267.4147,1.2,11.53,47.84626,-54.09684
2022-03-22 11:49:00+00:00,278.0364,1.2,11.53,47.84626,-54.09684
2022-03-22 11:59:00+00:00,293.8514,1.2,11.53,47.84626,-54.09684
2022-03-22 12:09:00+00:00,292.983,1.2,11.53,47.84626,-54.09684
2022-03-22 12:19:01+00:00,293.553,1.2,11.53,47.84626,-54.09684
2022-03-22 12:29:01+00:00,312.923,1.2,11.53,47.84626,-54.09684
2022-03-22 12:39:01+00:00,324.8981,1.2,11.53,47.84626,-54.09684
2022-03-22 12:49:01+00:00,322.0246,1.2,11.53,47.84626,-54.09684
2022-03-22 12:59:01+00:00,327.6063,1.2,11.53,47.84626,-54.09684
2022-03-22 13:09:01+00:00,344.5563,1.2,11.53,47.84626,-54.09684
2022-03-22 13:19:00+00:00,362.76800000000003,1.2,11.53,47.84626,-54.09684
2022-03-22 13:29:00+00:00,364.8546,1.2,11.53,47.84626,-54.09684
2022-03-22 13:39:00+00:00,367.1729,1.2,11.53,47.84626,-54.09684
2022-03-22 13:49:00+00:00,372.2562,1.22,11.53,47.84626,-54.09684
2022-03-22 13:59:00+00:00,373.5446,1.25,11.53,47.84626,-54.09684
2022-03-22 14:09:00+00:00,374.278,1.29,11.53,47.84626,-54.09684
2022-03-22 14:19:01+00:00,372.5963,1.3,11.53,47.84626,-54.09684
2022-03-22 14:29:01+00:00,379.5079,1.3,11.53,47.84626,-54.09684
2022-03-22 14:39:01+00:00,379.5395,1.3,11.53,47.84626,-54.09684
2022-03-22 14:49:01+00:00,371.3962,1.3,11.53,47.84626,-54.09684
2022-03-22 14:59:01+00:00,369.128,1.3,11.53,47.84626,-54.09684
2022-03-22 15:09:01+00:00,372.3346,1.3,11.53,47.84626,-54.09684
2022-03-22 15:19:00+00:00,373.62300000000016,1.3,11.53,47.84626,-54.09684
2022-03-22 15:29:00+00:00,365.8146,1.32,11.53,47.84626,-54.09684
2022-03-22 15:39:00+00:00,359.4095,1.38,11.53,47.84626,-54.09684
2022-03-22 15:49:00+00:00,361.3297,1.37,11.53,47.84626,-54.09684
2022-03-22 15:59:00+00:00,362.1897,1.35,11.53,47.84626,-54.09684
2022-03-22 16:09:00+00:00,355.8713,1.36,11.53,47.84626,-54.09684
2022-03-22 16:19:01+00:00,350.3713,1.37,11.53,47.84626,-54.09684
2022-03-22 16:29:01+00:00,350.7596,1.36,11.53,47.84626,-54.09684
2022-03-22 16:39:01+00:00,345.7697,1.36,11.53,47.84626,-54.09684
2022-03-22 16:49:01+00:00,336.8263,1.39,11.53,47.84626,-54.09684
2022-03-22 16:59:01+00:00,333.9596,1.4,11.53,47.84626,-54.09684
2022-03-22 17:09:01+00:00,331.48800000000006,1.4,11.53,47.84626,-54.09684
2022-03-22 17:19:01+00:00,316.778,1.4,11.53,47.84626,-54.09684
2022-03-22 17:29:01+00:00,305.3664,1.4,11.53,47.84626,-54.09684
2022-03-22 17:39:01+00:00,305.5181,1.4,11.53,47.84626,-54.09684
2022-03-22 17:49:01+00:00,297.423,1.4,11.53,47.84626,-54.09684
2022-03-22 17:59:01+00:00,280.9597,1.4,11.53,47.84626,-54.09684
2022-03-22 18:09:01+00:00,269.6164,1.4,11.53,47.84626,-54.09684
2022-03-22 18:19:00+00:00,268.1914,1.4,11.53,47.84626,-54.09684
2022-03-22 18:29:00+00:00,263.1664,1.4,11.53,47.84626,-54.09684
2022-03-22 18:39:00+00:00,250.4481,1.4,11.53,47.84626,-54.09684
2022-03-22 18:49:00+00:00,239.4948,1.4,11.53,47.84626,-54.09684
2022-03-22 18:59:00+00:00,233.6798,1.4,11.53,47.84626,-54.09684
2022-03-22 19:09:00+00:00,227.3514,1.4,11.53,47.84626,-54.09684
2022-03-22 19:19:00+00:00,219.6165,1.4,11.53,47.84626,-54.09684
2022-03-22 19:29:00+00:00,217.2364,1.4,11.53,47.84626,-54.09684
2022-03-22 19:39:00+00:00,212.4065,1.4,11.53,47.84626,-54.09684
2022-03-22 19:49:00+00:00,205.6214,1.4,11.53,47.84626,-54.09684
2022-03-22 19:59:00+00:00,203.5264,1.4,11.53,47.84626,-54.09684
2022-03-22 20:09:00+00:00,207.8165,1.4,11.53,47.84626,-54.09684
2022-03-22 20:19:01+00:00,206.8448,1.4,11.53,47.84626,-54.09684
2022-03-22 20:29:01+00:00,200.1715,1.4,11.53,47.84626,-54.09684
2022-03-22 20:39:01+00:00,198.7464,1.4,11.53,47.84626,-54.09684
2022-03-22 20:49:01+00:00,205.3114,1.4,11.53,47.84626,-54.09684
2022-03-22 20:59:01+00:00,207.3831,1.4,11.53,47.84626,-54.09684
2022-03-22 21:09:01+00:00,206.6047,1.4,11.53,47.84626,-54.09684
2022-03-22 21:19:01+00:00,213.4098,1.4,11.53,47.84626,-54.09684
2022-03-22 21:29:01+00:00,221.2698,1.4,11.53,47.84626,-54.09684
2022-03-22 21:39:01+00:00,223.3715,1.4,11.53,47.84626,-54.09684
2022-03-22 21:49:01+00:00,229.8864,1.4,11.53,47.84626,-54.09684
2022-03-22 21:59:01+00:00,238.3448,1.4,11.53,47.84626,-54.09684
2022-03-22 22:09:01+00:00,244.5531,1.4,11.53,47.84626,-54.09684
2022-03-22 22:19:00+00:00,251.3698,1.4,11.53,47.84626,-54.09684
2022-03-22 22:29:00+00:00,255.9914,1.4,11.53,47.84626,-54.09684
2022-03-22 22:39:00+00:00,257.7764,1.4,11.53,47.84626,-54.09684
2022-03-22 22:49:00+00:00,260.7598,1.4,11.53,47.84626,-54.09684
2022-03-22 22:59:00+00:00,267.3647,1.4,11.53,47.84626,-54.09684
2022-03-22 23:09:00+00:00,271.828,1.39,11.53,47.84626,-54.09684
2022-03-22 23:19:01+00:00,273.9398,1.34,11.53,47.84626,-54.09684
2022-03-22 23:29:01+00:00,281.603,1.32,11.53,47.84626,-54.09684
2022-03-22 23:39:01+00:00,288.4647,1.3,11.53,47.84626,-54.09684
2022-03-22 23:49:01+00:00,293.5381,1.3,11.53,47.84626,-54.09684
2022-03-22 23:59:01+00:00,297.1397,1.3,11.53,47.84626,-54.09684
